Location: Schommer Observatory
(40.5200°N, 74.4500°W)
Time: 02:25:35
(UTC-04:00)

ISS - Pass Details

Date: 23 May 2018
Orbit: 402 x 407 km, 51.6° (Epoch: 26 May)

Event Time Altitude Azimuth Distance (km) Brightness Sun altitude
Rises 22:18:02 0° 270° (W) 2,314 0.6 -18.7°
Reaches altitude 10° 22:20:28 10° 288° (WNW) 1,456 -0.2 -19.0°
Maximum altitude 22:23:00 21° 339° (NNW) 982 -1.0 -19.3°
Drops below altitude 10° 22:25:33 10° 30° (NNE) 1,458 -0.7 -19.6°
Sets 22:27:59 0° 48° (NE) 2,319 0.1 -19.9°
